[[{"header":{"parameterUnit":"m.s-1","parameterCategory":1,"la1":30.2992,"la2":30.254,"lo1":-89.0895,"lo2":-89.0443,"dy":0.0025,"dx":0.0025,"nx":19,"ny":19,"refTime":"2026-05-04T21:00:00:Z","depth":0,"parameterNumber":2,"parameterNumberName":"U-component_of_WINDS"},"data":[0,0,0,1.0279,1.0281,1.0386,1.0387,1.0501,1.0501,0,0,0,0,0,0,0,0,0,0,0,1.0237,1.0237,1.0279,1.0281,1.0386,1.0387,1.05,1.0501,0,0,0,0,0,0,0,0,0,0,0,1.0237,1.0237,1.0238,1.0282,1.0386,1.0387,1.05,1.0428,0,0,0,0,0,0,0,0,0,0,1.0329,1.028,1.0237,1.0238,1.0282,1.0386,1.0387,1.0425,1.0432,1.0444,0,1.0453,0,1.0479,1.0508,1.0508,0,0,0,1.0289,1.0273,1.0312,1.0238,1.0283,1.0386,1.0341,1.0429,1.0438,1.0454,1.0455,1.046,1.0481,1.0508,1.0509,1.0553,1.0552,0,0,1.0283,1.025,1.0306,1.0317,1.0301,1.0338,1.0344,1.0435,1.0433,1.0456,1.0463,1.0483,1.0509,1.051,1.0553,1.0553,0,0,0,1.0261,1.0245,1.0282,1.0312,1.0332,1.0341,1.0348,1.0429,1.0444,1.0464,1.0484,1.051,1.0511,1.0553,1.0553,1.051,0,0,0,1.0258,1.0232,1.0279,1.0259,1.033,1.0382,1.034,1.0438,1.0449,1.0484,1.051,1.0512,1.0553,1.0553,1.0512,1.0495,0,0,0,1.0234,1.023,1.0241,1.0257,1.0301,1.0382,1.0402,1.0441,1.0461,1.0508,1.0512,1.0554,1.0553,1.0514,1.0498,1.0495,0,0,0,1.0197,1.0203,1.024,1.0253,1.03,1.0355,1.0402,1.0445,1.048,1.051,1.0553,1.0553,1.0514,1.05,1.0497,1.0486,1.0479,0,0,1.0185,1.02,1.0211,1.0247,1.0287,1.0342,1.0375,1.044,1.0476,1.0524,1.0526,1.0511,1.0498,1.0496,1.0453,1.0447,0,0,0,1.0195,1.0202,1.022,1.0253,1.0303,1.0343,1.0407,1.043,1.0473,1.0494,1.0512,1.0505,1.0505,1.0501,1.0496,1.0497,1.055,1.055,1.055,1.0129,1.0173,1.0193,1.025,1.0281,1.0345,1.0374,1.0416,1.0453,1.0456,1.047,1.0439,1.0434,1.043,1.0431,1.047,1.047,1.047,1.047,1.0113,1.0129,1.0177,1.0213,1.0259,1.0289,1.0351,1.0375,1.0408,1.0433,1.0435,1.0456,1.0422,1.0425,1.0467,1.0467,1.0468,1.0468,1.0468,1.0073,1.0088,1.0117,1.0168,1.0201,1.0258,1.0288,1.033,1.0369,1.0371,1.0389,1.039,1.0394,1.0377,1.0377,1.0377,1.0377,1.0377,1.0377,1.0019,1.0054,1.0074,1.0126,1.0151,1.0189,1.0253,1.0278,1.0317,1.0345,1.0345,1.0379,1.0412,1.0418,1.0375,1.0375,1.0375,1.0376,1.0376,0.9984,0.9999,1.003,1.0055,1.0118,1.0147,1.02,1.0247,1.0274,1.0287,1.0321,1.0339,1.0357,1.0361,1.0366,1.0313,1.0313,1.0313,1.0313,0.9949,0.9962,1.0003,1.0039,1.0081,1.0131,1.0162,1.021,1.0262,1.0281,1.0295,1.0306,1.0308,1.0325,1.033,1.0335,1.0275,1.0275,1.0275,0.9929,0.9948,0.9967,1.0019,1.0071,1.0113,1.0143,1.0181,1.0244,1.0274,1.0296,1.0297,1.0315,1.032,1.0349,1.0357,1.0367,0,0]},{"header":{"parameterUnit":"m.s-1","parameterCategory":1,"la1":30.2992,"la2":30.254,"lo1":-89.0895,"lo2":-89.0443,"dy":0.0025,"dx":0.0025,"nx":19,"ny":19,"refTime":"2026-05-04T21:00:00:Z","depth":0,"parameterNumber":3,"parameterNumberName":"V-component_of_WINDS"},"data":[0,0,0,4.5614,4.5613,4.5534,4.5534,4.5432,4.5431,0,0,0,0,0,0,0,0,0,0,0,4.5641,4.5641,4.5614,4.5612,4.5534,4.5534,4.5432,4.5431,0,0,0,0,0,0,0,0,0,0,0,4.5641,4.5641,4.564,4.5612,4.5534,4.5534,4.5432,4.5491,0,0,0,0,0,0,0,0,0,0,4.5567,4.5597,4.5641,4.564,4.5612,4.5534,4.5534,4.5494,4.5487,4.5469,0,4.5457,0,4.5443,4.5425,4.5424,0,0,0,4.5608,4.5602,4.5578,4.564,4.5611,4.5534,4.5568,4.549,4.5483,4.546,4.5456,4.5452,4.5441,4.5424,4.5424,4.5341,4.5341,0,0,4.5613,4.5628,4.5583,4.5574,4.5591,4.5571,4.5566,4.5486,4.548,4.5455,4.5449,4.544,4.5423,4.5423,4.5341,4.5341,0,0,0,4.5628,4.5631,4.5609,4.5578,4.5564,4.5569,4.5563,4.5483,4.5475,4.5448,4.5438,4.5423,4.5422,4.5341,4.5341,4.5349,0,0,0,4.563,4.564,4.5611,4.562,4.5566,4.5524,4.5563,4.5481,4.5471,4.5439,4.5423,4.5421,4.5342,4.5341,4.5349,4.5348,0,0,0,4.5645,4.5642,4.5632,4.5621,4.5588,4.5525,4.5512,4.5478,4.5465,4.5424,4.542,4.5342,4.5341,4.5349,4.5349,4.5331,0,0,0,4.5664,4.5637,4.5633,4.5599,4.5589,4.5532,4.5512,4.5468,4.5433,4.5422,4.5342,4.5341,4.5349,4.5349,4.5332,4.532,4.5317,0,0,4.5639,4.5635,4.5614,4.5608,4.5556,4.5543,4.549,4.5441,4.5421,4.5368,4.5365,4.5349,4.5349,4.5332,4.5294,4.5292,0,0,0,4.5611,4.5596,4.5579,4.555,4.5516,4.5485,4.5444,4.5426,4.5381,4.5399,4.5338,4.5337,4.5326,4.5319,4.5317,4.5306,4.5339,4.5339,4.5339,4.5596,4.5576,4.554,4.551,4.5481,4.544,4.5414,4.5382,4.5366,4.5352,4.5335,4.5316,4.5309,4.5307,4.5296,4.5328,4.5328,4.5328,4.5328,4.5557,4.5533,4.5517,4.5476,4.5453,4.5416,4.5375,4.5365,4.5325,4.5326,4.5316,4.5318,4.5306,4.5295,4.5328,4.5328,4.5328,4.5328,4.5328,4.5545,4.5529,4.5511,4.5468,4.5435,4.5404,4.5368,4.5347,4.5326,4.5316,4.5296,4.5295,4.5291,4.5308,4.5308,4.5308,4.5308,4.5308,4.5308,4.5538,4.5518,4.5493,4.5456,4.5434,4.5403,4.5362,4.5339,4.5307,4.5294,4.5294,4.5279,4.531,4.5317,4.5307,4.5307,4.5307,4.5307,4.5307,4.5505,4.551,4.5471,4.545,4.5404,4.5373,4.5348,4.5303,4.528,4.5262,4.525,4.5277,4.527,4.5271,4.5277,4.5256,4.5256,4.5256,4.5256,4.5493,4.5489,4.5445,4.5413,4.5379,4.5353,4.5306,4.5273,4.5239,4.5223,4.5223,4.523,4.5232,4.5223,4.5226,4.5231,4.5199,4.5199,4.5199,4.5471,4.5463,4.5429,4.5401,4.5364,4.5331,4.5286,4.5246,4.5208,4.5196,4.521,4.5212,4.5223,4.5227,4.5215,4.5219,4.5228,0,0]}]]